Vertical_Velocity
-0 -0 -0 -0 -0 -0 -0 0 0 1 1 2 2 2 2 2 1 1 0 1 1 1 1 1 1 2 2 2 2 2 2 3 5 6 6 3 1 -2 -3 -2 2 3 3 2 -0 -2 -3 -4 -3 -2 -0 -0 -3 -4 -4 -4 -3 -3 -2 -1 0 2 5 9 9 10 13 18 13
-1 -1 -1 -0 -1 -1 -0 -0 0 0 1 1 1 1 1 1 1 0 0 1 0 0 0 -0 -0 0 0 0 0 1 2 5 5 3 -0 -2 -1 -1 -1 0 2 2 2 1 0 -1 -2 -3 -2 -1 -0 1 1 -0 -1 -1 -1 -1 -2 -3 -2 -1 2 5 7 9 10 11 11
-1 -1 -1 -1 -1 -1 -0 -0 -0 0 -0 -0 0 0 1 1 1 1 1 1 1 1 1 0 -0 0 0 -0 1 1 1 2 1 -2 -2 2 1 1 0 -0 -1 -1 -2 -2 -1 -2 -2 -2 -2 -2 -1 -1 0 0 -0 0 1 1 -1 -2 -3 -2 -1 2 4 5 6 7 12
-1 -1 -1 -1 -0 -0 0 1 1 1 0 1 1 2 2 2 2 2 2 2 2 2 1 1 1 0 1 1 2 0 -2 -2 -1 -1 -0 2 2 1 -1 -1 -3 -4 -5 -4 -4 -3 -2 -1 -1 -1 -1 -1 -0 -1 -1 -0 1 1 0 -1 -1 -1 -3 -5 -4 -2 1 7 10
-0 -0 -0 0 0 1 1 1 1 2 2 2 3 3 3 3 3 2 2 2 2 2 2 2 1 1 1 4 3 -0 -3 -2 1 1 0 0 0 0 -1 -1 -1 -2 -3 -3 -4 -3 -2 -1 -1 -1 -1 -1 -1 -1 -1 0 1 1 0 -0 0 0 -1 -2 -4 -3 -1 1 1
0 1 1 1 1 1 1 1 2 2 2 3 3 3 2 2 2 2 2 1 1 1 1 1 1 0 1 4 4 1 -1 1 2 2 1 -0 0 1 2 2 3 3 2 0 -1 -1 -1 -2 -2 -3 -2 -2 -2 -2 -1 0 1 0 -0 0 1 2 2 1 -0 -1 -2 -2 -2
1 1 1 1 1 1 1 1 1 2 2 2 2 1 0 -0 -0 -1 -1 -1 0 1 1 -1 -2 -2 -0 2 0 -1 -1 1 2 2 1 1 2 3 4 4 4 3 2 1 1 1 -0 -1 -2 -2 -2 -1 -1 -2 -3 -1 -1 0 1 1 1 2 2 1 -0 -1 -2 -3 -3
0 1 1 1 1 1 1 1 2 1 1 1 -0 -2 -4 -4 -2 -2 -1 -0 1 1 1 -1 -3 -2 -0 1 -2 -3 -2 0 1 2 2 2 2 2 2 2 2 2 2 2 2 1 0 -1 -1 -1 -1 1 1 -0 -2 -2 -1 0 1 1 -0 0 1 1 1 0 -1 -3 -3
0 0 0 1 1 2 2 1 1 -0 -1 -3 -4 -5 -4 -2 -0 1 2 3 4 4 3 0 -1 1 3 3 -0 -2 -2 0 1 2 2 2 2 1 0 1 2 2 2 2 3 2 1 1 -0 -1 -2 0 2 1 -1 -1 -1 -0 -0 0 -0 -1 -1 1 2 1 -1 -2 -3
-0 0 1 1 1 1 1 -0 -2 -3 -3 -4 -3 -2 1 3 4 4 4 4 4 5 4 1 1 3 4 4 2 0 -1 -1 -1 -0 -0 -0 -0 -0 -0 0 1 2 2 2 2 2 1 1 1 -0 -1 -1 0 -0 -1 -0 0 -0 -1 -1 -1 -0 -0 0 1 2 1 -1 -2
-1 0 1 1 -0 -1 -1 -2 -3 -2 -0 1 1 3 4 5 4 3 2 2 3 2 1 1 2 3 3 3 3 2 1 -1 -1 -2 -2 -2 -2 -1 -1 -0 1 1 2 1 1 1 1 1 0 -0 -1 -3 -2 -2 -1 -1 0 0 -1 -3 -1 0 1 0 1 3 3 2 -1
-0 0 1 0 -1 -1 -1 -1 0 1 3 3 3 3 4 3 2 1 1 1 0 -0 -0 1 2 2 2 2 2 1 1 -0 -1 -2 -2 -2 -2 -1 -1 -0 0 1 1 -0 -0 0 0 -1 -1 -1 -2 -3 -3 -2 -1 -1 -1 -1 -2 -4 -2 0 2 1 2 3 4 3 1
0 1 1 0 0 0 1 1 2 3 3 2 2 2 2 2 1 1 0 -0 -2 -2 -1 -0 0 1 0 -0 -0 -0 -0 -1 -1 -1 -1 -1 -1 -0 0 0 0 1 0 -1 -1 -1 -1 -2 -1 -1 -1 -3 -3 -2 -0 0 -1 -2 -2 -3 -1 1 2 3 3 3 3 2 0
1 1 1 1 1 1 1 1 1 2 2 1 1 1 1 1 0 0 -0 -1 -2 -2 -2 -1 -1 -1 -1 -1 -1 -1 -0 -0 0 0 0 -0 0 0 0 0 0 0 -0 -1 -1 -1 -1 -2 -1 -1 -1 -1 -1 -0 1 1 1 -0 -1 -1 -1 -1 -1 -1 0 0 -0 -2 -4
1 2 1 1 1 1 1 1 1 1 1 0 -0 -0 0 -0 -0 -0 -0 -1 -2 -2 -1 -0 -1 -1 -0 0 0 0 0 0 0 1 1 0 0 0 0 -0 -0 -0 -0 -0 -1 -1 -1 -1 -1 -0 0 1 1 1 1 2 1 1 1 -0 -1 -3 -4 -4 -4 -5 -5 -6 -6
1 1 1 0 -0 -0 -0 0 0 0 -0 -1 -1 -1 -0 -0 -0 -0 -0 -1 -1 -1 -0 0 -0 -0 0 0 1 1 0 0 0 0 0 -0 -0 -0 -0 -1 -1 -0 -0 0 -1 -1 -1 -1 -1 -0 0 1 1 2 2 1 1 1 -0 -1 -2 -2 -2 -3 -4 -5 -6 -5 -4
0 0 0 -0 -1 -1 -1 -1 -0 -0 -0 -1 -1 -0 -0 -0 -0 0 -0 -0 -0 0 0 -0 0 0 0 0 1 1 0 -0 -0 -0 -0 -0 -0 -0 -0 -1 -1 -0 -0 -0 -1 -1 -1 -1 -0 0 1 1 2 2 2 1 1 0 -1 -2 -2 -2 -1 -1 -1 -1 -2 -2 -2
-0 -0 -0 -1 -1 -1 -1 -0 -0 -0 -0 0 -0 -0 -0 0 0 0 0 0 1 1 0 -0 -0 0 0 0 -0 -1 -1 -1 -1 -1 -1 -0 -0 -0 -1 -1 -1 -1 -1 -1 -2 -2 -2 -2 -1 0 1 1 1 1 1 1 1 0 -0 -1 -1 -1 0 1 1 1 -0 -2 -3
-1 -1 -1 -1 -1 -1 -0 -0 -0 0 0 0 -0 -0 -0 0 1 1 1 1 1 1 0 -0 -0 -0 -0 -1 -1 -2 -2 -1 -1 -1 -1 -1 -1 -1 -1 -1 -2 -2 -2 -2 -2 -3 -3 -2 -1 -1 0 0 1 1 1 1 1 1 0 0 0 0 1 1 1 0 -1 -4 -6
-1 -1 -1 -0 -0 -0 0 0 0 0 0 0 0 0 0 1 1 1 1 0 1 1 1 0 -0 -1 -1 -2 -2 -2 -2 -2 -2 -2 -2 -1 -1 -1 -1 -2 -2 -2 -2 -2 -3 -3 -3 -2 -2 -1 -1 -0 0 1 1 2 2 1 1 2 1 1 1 1 0 -2 -6 -9 -10
-0 -0 -0 -0 -0 0 0 1 1 1 1 1 1 1 1 1 1 1 1 0 0 0 0 -0 -1 -2 -2 -3 -2 -2 -3 -2 -2 -2 -3 -2 -2 -2 -2 -2 -2 -2 -2 -2 -2 -3 -3 -2 -2 -1 -1 -1 -1 -0 1 1 1 2 2 2 1 1 1 2 -0 -4 -9 -12 -10
-0 0 0 -0 -0 0 0 1 1 1 1 1 1 1 1 1 1 1 0 0 0 0 0 -1 -1 -2 -3 -3 -3 -3 -3 -2 -2 -3 -3 -3 -3 -3 -3 -2 -2 -2 -1 -1 -2 -2 -2 -2 -2 -2 -2 -2 -2 -2 -1 -1 -0 0 0 0 0 1 1 1 -1 -4 -6 -7 -4
0 0 0 0 0 1 1 1 1 1 1 1 1 1 1 0 0 0 0 0 0 0 -0 -1 -2 -2 -3 -3 -2 -2 -2 -3 -2 -2 -2 -2 -3 -3 -3 -2 -2 -1 -1 -2 -2 -2 -2 -2 -2 -2 -2 -3 -3 -3 -3 -2 -2 -2 -2 -1 -0 1 1 -1 -2 -3 -3 -2 -1
0 1 1 1 1 1 2 2 2 2 2 1 1 1 0 -0 -0 -0 0 0 0 -0 -1 -2 -2 -2 -2 -2 -2 -2 -2 -3 -2 -2 -2 -2 -2 -3 -3 -2 -2 -2 -2 -2 -2 -2 -2 -2 -3 -3 -4 -4 -3 -2 -2 -2 -3 -3 -2 -0 1 2 1 -1 -2 -2 -3 -3 -2
1 1 1 1 2 2 2 2 2 2 2 1 0 -0 -1 -1 -1 -0 0 0 -1 -1 -2 -2 -2 -2 -2 -2 -2 -2 -2 -2 -2 -2 -2 -2 -2 -2 -2 -3 -2 -2 -2 -2 -2 -2 -3 -3 -3 -4 -5 -5 -3 -1 1 0 -1 -1 -1 1 2 1 -0 -2 -3 -4 -4 -3 -1
0 0 1 1 2 2 2 2 2 1 1 -0 -0 -1 -1 -1 -0 -0 -0 -1 -1 -2 -2 -2 -2 -2 -2 -2 -2 -2 -2 -2 -2 -2 -2 -2 -2 -2 -2 -2 -2 -2 -2 -2 -2 -3 -3 -3 -3 -4 -5 -6 -4 -1 2 3 3 2 2 2 2 1 -0 -2 -2 -2 -1 1 2
0 0 1 1 1 1 1 1 1 -0 -1 -1 -1 -1 -0 -0 0 -0 -0 -1 -1 -1 -1 -1 -1 -1 -1 -1 -1 -2 -2 -2 -2 -2 -2 -2 -2 -1 -1 -1 -1 -2 -2 -3 -3 -3 -3 -3 -3 -3 -3 -3 -2 -0 2 3 3 3 2 1 1 0 0 -0 0 1 2 2 2
0 0 0 0 1 0 0 -0 -1 -1 -1 -1 -0 0 0 0 0 -0 -1 -1 -1 -1 -1 -1 -1 -1 -1 -1 -2 -2 -2 -1 -1 -1 -1 -1 -0 -0 -1 -1 -2 -2 -3 -3 -4 -4 -3 -3 -3 -2 -2 -1 -1 -0 0 1 0 0 0 0 -1 -1 -1 -0 1 2 2 1 0
-0 -0 -0 -0 -0 -1 -1 -1 -1 -1 -1 -0 0 0 0 0 -0 -1 -1 -1 -1 -1 -1 -1 -1 -1 -1 -2 -2 -2 -1 -1 -1 -1 -1 -1 -1 -1 -1 -2 -3 -3 -4 -4 -4 -4 -4 -3 -3 -3 -2 -1 -1 -1 -1 -0 -1 -1 -1 -2 -2 -1 -1 0 1 1 1 0 -1
-1 -1 -1 -1 -1 -1 -1 -2 -1 -1 -1 -0 -0 -0 -0 -1 -1 -1 -1 -1 -1 -1 -1 -1 -1 -1 -1 -2 -2 -1 -1 -0 -0 -1 -1 -1 -1 -2 -2 -3 -3 -4 -4 -4 -4 -4 -4 -4 -3 -3 -2 -2 -1 -1 -1 -1 -2 -2 -3 -3 -2 -1 -0 1 1 1 0 -1 -1
-1 -1 -1 -1 -1 -1 -2 -2 -2 -1 -1 -1 -1 -1 -1 -1 -1 -1 -1 -1 -1 -1 -1 -0 -1 -1 -1 -1 -1 -1 -0 -0 -1 -1 -2 -2 -2 -3 -3 -3 -4 -4 -4 -4 -4 -4 -4 -3 -3 -3 -3 -2 -2 -2 -2 -2 -3 -3 -3 -2 -1 0 1 1 1 0 0 -0 -0
-1 -1 -1 -1 -1 -1 -2 -2 -1 -1 -1 -1 -1 -1 -1 -1 -1 -1 -1 -1 -0 -0 -0 -0 -1 -1 -1 -1 -0 -0 -1 -1 -2 -2 -2 -2 -3 -3 -3 -3 -3 -4 -4 -4 -4 -4 -3 -3 -3 -3 -3 -3 -3 -3 -3 -2 -2 -2 -1 0 1 1 2 1 1 1 1 1 1
-1 -1 -1 -1 -1 -1 -1 -1 -1 -1 -1 -1 -1 -1 -1 -1 -1 -1 -1 -1 -0 -0 -1 -1 -1 -1 -1 -1 -1 -1 -2 -2 -2 -2 -2 -2 -3 -3 -3 -3 -3 -3 -3 -3 -3 -4 -4 -4 -3 -3 -3 -3 -2 -2 -1 -1 -0 0 1 1 1 1 1 1 0 0 0 0 0
-1 -1 -1 -1 -1 -1 -1 -1 -1 -1 -1 -1 -1 -1 -1 -1 -1 -1 -1 -1 -1 -1 -1 -1 -1 -2 -2 -2 -2 -2 -2 -2 -2 -2 -2 -3 -3 -3 -3 -3 -3 -3 -4 -4 -4 -4 -4 -3 -3 -3 -2 -2 -1 -1 -0 0 1 1 1 1 0 -0 -0 -1 -1 -1 -0 -0 -1
-1 -0 -0 -0 -0 -0 -0 -1 -1 -1 -1 -1 -1 -1 -1 -1 -1 -1 -1 -1 -1 -1 -1 -2 -2 -2 -2 -2 -2 -2 -2 -2 -3 -3 -3 -3 -3 -4 -4 -4 -4 -4 -4 -4 -4 -4 -4 -3 -3 -2 -2 -1 -1 -1 -0 0 0 0 -0 -0 -1 -1 -1 -1 -1 -1 -1 -1 -1
-0 -0 0 0 -0 -0 -1 -1 -1 -1 -1 -1 -1 -1 -1 -1 -1 -1 -1 -1 -1 -1 -1 -1 -2 -2 -2 -2 -2 -3 -3 -3 -3 -4 -4 -4 -4 -5 -5 -4 -4 -4 -4 -4 -4 -3 -3 -3 -2 -2 -2 -1 -1 -1 -0 -0 -0 -0 -0 -0 -1 -1 -1 -1 -1 -1 -1 -0 -1
-0 -0 -0 -0 -1 -1 -1 -1 -1 -1 -1 -1 -1 -1 -1 -1 -1 -1 -0 -0 -0 -1 -1 -1 -2 -2 -2 -3 -3 -3 -4 -4 -4 -4 -4 -5 -5 -4 -4 -4 -3 -3 -3 -3 -3 -3 -2 -2 -2 -1 -1 -1 -1 -1 -0 -0 -0 -0 -0 -1 -1 -1 -1 -1 -1 -1 -1 -1 -1
-1 -1 -1 -1 -1 -1 -1 -1 -1 -1 -1 -1 -1 -1 -1 -1 -0 -0 0 0 -0 -1 -1 -2 -2 -3 -3 -3 -4 -4 -4 -4 -4 -4 -4 -4 -4 -4 -3 -3 -3 -2 -2 -2 -2 -2 -2 -2 -1 -1 -1 -1 -1 -1 -1 -1 -1 -1 -1 -1 -1 -1 -1 -1 -1 -1 -1 -1 -1
-1 -1 -1 -1 -1 -1 -1 -1 -1 -1 -2 -2 -1 -1 -1 -1 -0 -0 -0 -1 -1 -2 -3 -3 -3 -3 -3 -3 -3 -3 -3 -3 -4 -4 -4 -3 -3 -3 -2 -2 -2 -2 -2 -2 -2 -2 -2 -2 -2 -2 -2 -2 -2 -2 -2 -1 -1 -1 -1 -1 -1 -1 -1 -1 -1 -1 -1 -1 -0
-1 -1 -1 -1 -1 -1 -1 -1 -2 -2 -2 -2 -2 -1 -1 -1 -1 -1 -2 -2 -2 -3 -3 -3 -3 -3 -3 -3 -3 -3 -3 -3 -3 -3 -3 -3 -2 -2 -2 -2 -2 -2 -2 -2 -2 -2 -2 -2 -2 -3 -3 -3 -2 -2 -2 -2 -1 -1 -1 -1 -1 -1 -1 -0 0 0 -0 -1 -1
-1 -1 -1 -1 -1 -1 -1 -2 -2 -2 -2 -2 -2 -2 -2 -2 -2 -2 -2 -3 -3 -3 -3 -3 -2 -2 -2 -2 -2 -2 -3 -3 -3 -2 -2 -2 -2 -2 -2 -2 -2 -2 -2 -2 -2 -2 -2 -2 -2 -3 -3 -3 -3 -2 -2 -2 -1 -1 -1 -0 0 0 -0 -0 0 1 1 0 -1
Height
3100 3100 3100 3101 3101 3101 3102 3102 3102 3102 3103 3103 3103 3103 3103 3103 3103 3103 3103 3103 3103 3104 3104 3104 3104 3104 3104 3104 3104 3104 3103 3103 3102 3101 3101 3101 3101 3101 3102 3102 3102 3101 3100 3099 3098 3097 3097 3096 3096 3095 3095 3094 3094 3093 3093 3093 3092 3092 3091 3090 3090 3089 3087 3085 3084 3084 3084 3083 3083
3098 3098 3099 3099 3099 3099 3100 3100 3100 3100 3100 3101 3101 3101 3101 3101 3101 3101 3101 3101 3101 3101 3101 3101 3101 3102 3102 3101 3101 3101 3100 3100 3099 3098 3098 3099 3100 3100 3100 3100 3100 3099 3098 3097 3096 3095 3095 3094 3094 3093 3093 3092 3091 3091 3090 3090 3090 3089 3088 3087 3087 3086 3085 3083 3081 3080 3080 3080 3080
3096 3096 3096 3097 3097 3097 3097 3098 3098 3098 3098 3099 3099 3099 3099 3099 3099 3099 3099 3099 3099 3099 3099 3099 3099 3099 3099 3099 3098 3098 3097 3096 3095 3095 3095 3096 3098 3098 3098 3098 3097 3096 3095 3095 3094 3093 3092 3092 3091 3091 3090 3089 3089 3088 3087 3087 3086 3086 3085 3084 3084 3083 3082 3081 3080 3078 3078 3078 3076
3094 3094 3094 3095 3095 3095 3095 3096 3096 3096 3096 3097 3097 3097 3097 3097 3097 3097 3097 3097 3097 3097 3097 3097 3097 3096 3096 3096 3095 3095 3094 3093 3093 3093 3093 3095 3095 3095 3095 3095 3094 3093 3093 3092 3091 3091 3090 3090 3089 3088 3087 3087 3086 3085 3085 3084 3083 3083 3082 3081 3081 3080 3080 3079 3078 3077 3076 3075 3073
3091 3092 3092 3093 3093 3093 3094 3094 3094 3095 3095 3095 3095 3095 3095 3095 3095 3095 3095 3095 3095 3095 3095 3095 3094 3094 3094 3093 3093 3092 3091 3091 3091 3091 3092 3092 3093 3093 3092 3092 3091 3091 3090 3089 3089 3088 3087 3087 3086 3085 3085 3084 3083 3082 3082 3081 3080 3080 3079 3079 3078 3077 3077 3076 3075 3074 3074 3073 3071
3090 3090 3090 3090 3091 3091 3092 3092 3092 3092 3093 3093 3093 3093 3093 3093 3093 3093 3093 3093 3093 3093 3093 3092 3092 3091 3091 3091 3090 3090 3089 3089 3089 3090 3090 3090 3090 3090 3090 3089 3089 3088 3087 3086 3086 3085 3085 3084 3083 3083 3082 3082 3081 3080 3079 3079 3078 3077 3076 3075 3075 3075 3074 3073 3072 3072 3071 3070 3069
3087 3088 3088 3088 3089 3089 3089 3090 3090 3090 3090 3090 3090 3090 3090 3090 3090 3090 3090 3090 3090 3091 3090 3090 3089 3088 3088 3088 3088 3088 3087 3087 3088 3088 3088 3088 3088 3087 3087 3087 3086 3085 3085 3084 3083 3082 3081 3081 3080 3080 3079 3079 3078 3077 3076 3076 3075 3074 3073 3073 3072 3072 3071 3070 3070 3069 3069 3068 3067
3085 3085 3085 3086 3086 3087 3087 3087 3087 3087 3087 3087 3087 3087 3086 3086 3087 3087 3088 3089 3089 3089 3088 3087 3086 3086 3086 3086 3085 3085 3085 3085 3085 3086 3086 3086 3085 3085 3084 3084 3083 3082 3082 3081 3080 3079 3078 3077 3077 3076 3076 3076 3075 3075 3074 3073 3072 3071 3070 3070 3069 3069 3068 3068 3067 3067 3066 3066 3065
3082 3082 3083 3084 3084 3084 3085 3085 3085 3085 3084 3084 3084 3084 3084 3085 3085 3086 3087 3087 3087 3087 3086 3085 3084 3084 3084 3084 3083 3083 3082 3082 3083 3083 3083 3083 3082 3082 3081 3080 3080 3079 3079 3078 3077 3076 3075 3074 3074 3073 3073 3073 3072 3071 3071 3070 3069 3069 3068 3067 3066 3066 3065 3065 3065 3065 3064 3064 3063
3079 3080 3080 3081 3081 3082 3082 3082 3081 3081 3081 3081 3081 3082 3083 3084 3084 3085 3085 3085 3084 3084 3084 3083 3083 3083 3083 3082 3082 3081 3080 3080 3079 3079 3079 3079 3079 3078 3078 3077 3077 3076 3075 3074 3074 3073 3072 3071 3071 3070 3070 3069 3069 3068 3068 3067 3066 3065 3065 3065 3064 3063 3063 3062 3062 3062 3061 3061 3061
3076 3077 3078 3078 3078 3079 3079 3079 3079 3079 3079 3080 3080 3081 3082 3082 3082 3081 3081 3081 3081 3081 3081 3081 3081 3081 3080 3080 3080 3079 3078 3077 3077 3076 3075 3075 3075 3075 3074 3074 3073 3073 3072 3071 3070 3070 3069 3069 3068 3067 3066 3066 3065 3065 3065 3064 3064 3063 3062 3062 3061 3061 3060 3060 3060 3059 3059 3058 3058
3074 3075 3075 3075 3076 3076 3076 3076 3077 3077 3078 3078 3079 3079 3079 3079 3079 3078 3078 3078 3078 3078 3078 3078 3078 3078 3078 3078 3077 3076 3076 3075 3074 3074 3073 3072 3072 3071 3071 3070 3070 3069 3069 3068 3067 3066 3066 3065 3065 3064 3063 3063 3062 3062 3061 3061 3060 3060 3060 3059 3059 3058 3058 3057 3057 3056 3056 3055 3055
3072 3073 3073 3073 3074 3074 3074 3075 3075 3075 3076 3076 3076 3076 3076 3076 3075 3075 3075 3075 3075 3075 3075 3075 3075 3075 3075 3075 3074 3074 3073 3072 3072 3071 3070 3070 3069 3069 3068 3068 3067 3066 3066 3065 3064 3064 3063 3062 3062 3061 3060 3060 3059 3059 3059 3058 3058 3057 3057 3056 3056 3056 3055 3055 3054 3054 3053 3052 3052
3070 3070 3071 3071 3071 3072 3072 3072 3073 3073 3073 3073 3073 3073 3073 3073 3073 3073 3072 3072 3072 3072 3072 3072 3072 3072 3072 3072 3071 3071 3070 3070 3069 3069 3068 3067 3067 3066 3065 3065 3065 3064 3063 3062 3061 3061 3060 3060 3059 3058 3057 3057 3056 3056 3055 3055 3055 3054 3054 3054 3054 3053 3052 3052 3051 3050 3050 3050 3049
3068 3069 3069 3069 3069 3069 3070 3070 3070 3070 3070 3070 3070 3070 3070 3070 3070 3070 3070 3070 3070 3069 3069 3069 3069 3069 3069 3069 3069 3068 3068 3067 3067 3066 3065 3065 3064 3064 3063 3063 3062 3061 3061 3060 3059 3059 3058 3057 3056 3055 3055 3054 3053 3053 3053 3052 3052 3052 3051 3051 3050 3050 3049 3048 3048 3047 3047 3047 3047
3066 3066 3067 3067 3067 3067 3067 3067 3067 3068 3068 3067 3067 3067 3067 3068 3068 3068 3068 3068 3067 3067 3067 3067 3067 3067 3067 3066 3066 3065 3065 3065 3064 3064 3063 3063 3062 3062 3061 3060 3060 3060 3059 3058 3057 3056 3055 3055 3054 3053 3052 3051 3050 3050 3050 3049 3049 3049 3049 3048 3048 3047 3046 3045 3044 3044 3044 3044 3044
3064 3064 3065 3065 3065 3065 3065 3065 3065 3065 3065 3065 3065 3065 3065 3065 3066 3066 3066 3065 3065 3065 3065 3065 3065 3065 3064 3064 3064 3063 3063 3062 3062 3061 3061 3060 3060 3060 3059 3059 3058 3058 3057 3056 3055 3055 3054 3053 3051 3050 3049 3048 3047 3047 3047 3046 3046 3046 3046 3045 3045 3044 3043 3042 3041 3041 3042 3042 3042
3062 3062 3062 3063 3063 3063 3063 3063 3063 3063 3063 3063 3063 3063 3063 3064 3064 3064 3064 3063 3063 3063 3063 3062 3062 3062 3062 3061 3061 3061 3060 3060 3060 3059 3059 3059 3058 3058 3057 3057 3056 3055 3055 3054 3053 3053 3051 3050 3049 3048 3046 3045 3045 3044 3043 3043 3043 3043 3043 3043 3042 3041 3040 3040 3039 3039 3039 3040 3039
3060 3060 3060 3061 3061 3061 3061 3061 3061 3061 3061 3061 3061 3061 3061 3062 3062 3062 3061 3061 3061 3061 3060 3060 3060 3060 3060 3059 3059 3059 3058 3058 3058 3057 3057 3056 3056 3055 3055 3055 3054 3054 3053 3052 3051 3050 3050 3048 3047 3045 3044 3042 3041 3041 3040 3040 3040 3040 3040 3040 3040 3039 3038 3037 3037 3037 3037 3037 3037
3059 3059 3059 3059 3059 3059 3060 3060 3060 3060 3060 3060 3060 3060 3060 3060 3060 3060 3059 3059 3059 3059 3058 3058 3058 3058 3057 3057 3057 3057 3056 3056 3055 3055 3055 3054 3054 3053 3053 3053 3052 3051 3051 3050 3050 3049 3048 3046 3045 3043 3042 3040 3039 3039 3038 3038 3038 3038 3038 3038 3037 3036 3036 3036 3035 3035 3035 3035 3034
3057 3057 3057 3058 3058 3058 3058 3058 3058 3058 3058 3058 3058 3058 3058 3057 3057 3057 3057 3057 3057 3056 3056 3056 3056 3056 3055 3055 3055 3055 3054 3054 3053 3053 3052 3052 3051 3051 3051 3050 3050 3050 3049 3048 3048 3047 3045 3045 3043 3042 3040 3039 3037 3037 3036 3036 3036 3036 3035 3035 3035 3035 3034 3034 3034 3033 3033 3032 3031
3056 3056 3056 3056 3056 3056 3056 3056 3056 3056 3056 3056 3056 3055 3055 3055 3055 3055 3055 3055 3055 3055 3054 3054 3054 3054 3054 3054 3053 3053 3052 3052 3051 3050 3050 3050 3049 3049 3049 3049 3048 3048 3047 3046 3046 3045 3044 3043 3041 3040 3039 3037 3036 3035 3035 3035 3034 3034 3034 3034 3033 3033 3033 3032 3032 3031 3030 3030 3029
3055 3055 3055 3055 3055 3055 3055 3055 3054 3054 3054 3054 3054 3053 3053 3053 3053 3053 3053 3053 3053 3053 3053 3053 3053 3053 3052 3052 3052 3051 3050 3050 3049 3049 3048 3048 3047 3047 3047 3046 3046 3046 3045 3045 3044 3043 3042 3041 3040 3039 3037 3036 3035 3034 3034 3033 3033 3033 3032 3032 3032 3031 3031 3031 3030 3029 3028 3028 3027
3053 3053 3053 3053 3053 3053 3053 3052 3052 3052 3052 3051 3051 3051 3051 3051 3051 3051 3051 3051 3051 3051 3051 3051 3051 3051 3051 3050 3050 3049 3049 3048 3047 3047 3046 3046 3045 3045 3045 3044 3044 3044 3043 3042 3042 3041 3040 3039 3038 3037 3036 3035 3034 3034 3033 3032 3032 3031 3031 3031 3030 3030 3030 3029 3028 3028 3027 3026 3025
3051 3051 3051 3051 3051 3051 3050 3050 3050 3050 3050 3049 3049 3049 3049 3049 3049 3049 3049 3049 3049 3049 3050 3050 3050 3049 3049 3049 3048 3048 3047 3046 3045 3045 3044 3044 3044 3043 3043 3042 3042 3041 3041 3040 3040 3039 3038 3037 3036 3035 3034 3034 3033 3032 3032 3031 3031 3030 3030 3029 3029 3029 3028 3027 3026 3025 3025 3024 3024
3050 3049 3049 3049 3049 3049 3048 3048 3048 3048 3048 3047 3047 3047 3047 3047 3047 3047 3047 3047 3047 3048 3048 3048 3048 3048 3047 3047 3047 3046 3045 3045 3044 3043 3043 3042 3042 3041 3041 3041 3040 3040 3039 3038 3038 3037 3036 3035 3035 3034 3033 3032 3032 3031 3030 3030 3030 3029 3029 3028 3027 3026 3025 3025 3024 3023 3023 3022 3022
3048 3047 3047 3047 3047 3047 3046 3046 3046 3046 3046 3045 3045 3045 3045 3045 3045 3045 3045 3045 3045 3046 3046 3046 3046 3046 3046 3045 3045 3044 3044 3043 3042 3042 3041 3040 3040 3040 3040 3039 3039 3038 3037 3037 3036 3035 3035 3034 3033 3032 3032 3031 3031 3030 3030 3029 3028 3028 3027 3026 3025 3024 3023 3023 3022 3021 3021 3020 3020
3046 3046 3045 3045 3045 3045 3045 3044 3044 3044 3044 3044 3044 3044 3043 3043 3043 3043 3043 3044 3044 3045 3045 3045 3045 3045 3044 3044 3043 3043 3042 3042 3041 3040 3040 3040 3039 3039 3038 3037 3037 3036 3035 3035 3034 3033 3033 3032 3031 3030 3030 3030 3029 3029 3028 3027 3027 3026 3025 3024 3023 3022 3021 3020 3020 3019 3019 3018 3017
3045 3045 3044 3044 3044 3043 3043 3043 3043 3043 3042 3042 3042 3042 3042 3041 3041 3041 3042 3042 3042 3043 3043 3043 3043 3043 3043 3042 3042 3042 3041 3041 3040 3040 3039 3038 3038 3037 3036 3036 3035 3035 3034 3033 3033 3032 3031 3030 3030 3029 3028 3028 3027 3027 3026 3025 3025 3024 3023 3022 3021 3020 3020 3019 3018 3017 3016 3015 3015
3044 3043 3043 3043 3042 3042 3042 3042 3041 3041 3041 3041 3040 3040 3040 3040 3040 3040 3040 3040 3041 3041 3041 3042 3042 3041 3041 3041 3041 3041 3040 3040 3039 3039 3038 3037 3036 3036 3035 3035 3034 3033 3032 3032 3031 3030 3030 3029 3028 3028 3027 3026 3025 3025 3024 3024 3023 3022 3021 3020 3019 3019 3018 3017 3016 3015 3015 3014 3013
3042 3042 3042 3041 3041 3041 3041 3040 3040 3040 3040 3039 3039 3039 3039 3038 3038 3039 3039 3039 3040 3040 3040 3040 3040 3040 3040 3040 3040 3040 3039 3039 3038 3037 3036 3036 3035 3035 3034 3033 3033 3032 3031 3030 3030 3029 3029 3028 3027 3026 3026 3025 3024 3023 3022 3022 3021 3020 3019 3019 3018 3017 3016 3015 3015 3014 3013 3012 3011
3041 3040 3040 3040 3040 3040 3040 3039 3039 3039 3038 3038 3038 3037 3037 3037 3037 3037 3037 3038 3038 3038 3039 3039 3039 3039 3039 3039 3039 3039 3038 3037 3036 3036 3035 3034 3034 3033 3033 3032 3031 3031 3030 3030 3029 3028 3027 3027 3026 3025 3025 3024 3023 3022 3021 3020 3020 3019 3018 3018 3017 3016 3015 3015 3014 3013 3012 3011 3011
3039 3039 3039 3039 3039 3038 3038 3038 3038 3037 3037 3036 3036 3036 3036 3036 3036 3036 3036 3036 3037 3037 3037 3037 3038 3038 3038 3038 3037 3037 3036 3035 3035 3034 3034 3033 3032 3032 3031 3031 3030 3030 3029 3028 3028 3027 3026 3026 3025 3024 3023 3023 3022 3021 3020 3019 3019 3018 3018 3017 3016 3015 3015 3014 3013 3012 3012 3011 3010
3038 3038 3038 3037 3037 3037 3037 3037 3036 3036 3036 3035 3035 3035 3035 3035 3035 3035 3035 3035 3035 3035 3036 3036 3036 3036 3036 3036 3036 3035 3035 3034 3034 3033 3032 3032 3031 3030 3030 3030 3029 3029 3028 3027 3027 3026 3026 3025 3024 3023 3023 3022 3021 3020 3020 3019 3019 3018 3017 3017 3016 3015 3015 3014 3013 3012 3011 3011 3010
3037 3037 3036 3036 3036 3036 3036 3036 3035 3035 3035 3035 3035 3034 3034 3034 3034 3034 3034 3034 3035 3035 3035 3035 3035 3035 3035 3035 3035 3034 3034 3033 3033 3032 3031 3031 3030 3030 3030 3029 3029 3028 3028 3027 3026 3026 3025 3025 3024 3023 3023 3022 3021 3020 3020 3020 3019 3018 3017 3017 3016 3015 3014 3014 3013 3012 3011 3011 3010
3036 3036 3036 3036 3035 3035 3035 3035 3035 3035 3034 3034 3034 3034 3034 3034 3034 3034 3034 3034 3034 3034 3034 3035 3035 3035 3034 3034 3034 3034 3033 3032 3032 3031 3031 3031 3030 3030 3030 3029 3029 3028 3028 3027 3027 3026 3025 3025 3024 3024 3023 3022 3022 3021 3020 3020 3019 3018 3017 3017 3016 3015 3014 3013 3012 3012 3011 3010 3009
3036 3035 3035 3035 3035 3035 3035 3035 3035 3034 3034 3034 3034 3034 3034 3033 3033 3033 3033 3034 3034 3034 3034 3034 3034 3034 3034 3034 3033 3033 3033 3032 3032 3031 3031 3031 3030 3030 3030 3029 3029 3029 3028 3028 3027 3026 3026 3025 3025 3024 3023 3023 3022 3021 3020 3020 3019 3018 3017 3016 3015 3014 3013 3012 3012 3011 3010 3009 3008
3035 3035 3035 3035 3035 3035 3035 3035 3035 3035 3034 3034 3034 3034 3034 3034 3033 3033 3034 3034 3034 3034 3034 3034 3034 3034 3034 3034 3033 3033 3033 3032 3032 3032 3031 3031 3031 3031 3030 3030 3030 3029 3029 3028 3028 3027 3026 3025 3025 3024 3023 3022 3021 3020 3020 3019 3018 3017 3016 3015 3014 3013 3012 3011 3010 3010 3009 3008 3007
3036 3036 3036 3035 3035 3035 3035 3035 3035 3035 3035 3035 3034 3034 3034 3034 3034 3034 3034 3034 3034 3034 3034 3034 3034 3034 3034 3034 3033 3033 3033 3033 3032 3032 3032 3032 3032 3031 3031 3030 3030 3030 3029 3028 3028 3027 3026 3025 3025 3024 3023 3022 3021 3020 3019 3018 3017 3016 3015 3014 3013 3012 3011 3010 3009 3008 3007 3007 3006
3037 3036 3036 3036 3036 3036 3036 3036 3036 3035 3035 3035 3035 3035 3035 3035 3034 3034 3034 3034 3034 3034 3034 3034 3034 3034 3034 3034 3034 3033 3033 3033 3033 3033 3033 3032 3032 3032 3031 3031 3030 3030 3029 3028 3027 3026 3026 3025 3024 3023 3022 3020 3020 3019 3018 3016 3015 3015 3014 3013 3012 3011 3010 3009 3008 3007 3006 3005 3004
3037 3037 3037 3037 3037 3037 3037 3037 3036 3036 3036 3036 3035 3035 3035 3035 3035 3035 3035 3035 3035 3035 3034 3034 3034 3034 3034 3034 3034 3034 3034 3034 3033 3033 3033 3033 3032 3032 3031 3031 3030 3029 3029 3028 3027 3026 3025 3024 3023 3022 3020 3020 3018 3017 3016 3015 3014 3013 3012 3011 3010 3009 3008 3007 3006 3005 3005 3004 3002